Погода в Медведеве

Россия / Республика Крым     45°23′08″N   33°00′06″E
темп.,
°C
ветер,
м/с
пор.,
м/с
влажн.,
%
обл.,
%
осадки,
мм/ч
давл.,
гПа
погр.,
м
13 июня, вс
вс1300:00+17з33815 0.0 101341
03:00+17зюз23835 0.0 101230
06:00+17ююз23815 0.0 101153
09:00+22ююз55535 0.0 1011855
12:00+24ююз66495 0.0 10111253
15:00+24ююз66504 0.0 10101379
18:00+22ююз67584 0.0 1009838
21:00+18ююз488623 1.3 1010186
14 июня, пн
пн1400:00+18ю4982100 0.8 1009220
03:00+18ююз51078100 0.9 1008370
06:00+19ю598192 0.1 1008590
09:00+18ююв61081100 1.6 1009651
12:00+18ююв7118395 2.3 1009694
15:00+21зюз567046 3.1 1009996
18:00+19зсз43729 0.0 1010602
21:00+16з338580 0.0 101060
15 июня, вт
вт1500:00+16з1185100 0.1 101019
03:00+15с228786 0.2 100920
06:00+17ссв3693100 0.1 1009171
09:00+17с1294100 3.2 100991
12:00+17с2497100 8.8 1008180
15:00+17ююз4595100 15.9 1007366
18:00+18ю468395 1.7 1007580
21:00+16ю369019 1.7 1008145
16 июня, ср
ср1600:00+15ююв34921 0.0 100883
03:00+15ююв34882 0.1 100883
06:00+16ю368682 0.4 1008149
09:00+20ююв666833 1.3 10091070
12:00+21ююв676180 0.3 10101094
15:00+17в6777100 2.6 1010356
18:00+18всв5107787 0.6 1010516
21:00+17всв51077100 0.6 1011307
17 июня, чт
чт1700:00+16ссв510860 0.0 1011196
03:00+16ссв499015 0.1 1011187
06:00+15св4108882 0.0 1011232
09:00+20св71070100 0.1 1011669
12:00+23св9959100 0.1 10121424
15:00+22св686251 0.1 10121263
18:00+23св786458 1.6 10131140
21:00+18св498410 1.7 1014219